Hamilton, OH

2:36 AM EDT on October 17, 2017 (GMT -0400)
Butler County Regional

Weather History for KHAO - October, 2013

Change the Weather History Date:

Wednesday, October 16, 2013

  Actual Average (KLUK) Record (KLUK)
Temperature  
Mean Temperature 58 °F -  
Max Temperature 70 °F 65 °F 84 °F (1962)
Min Temperature 45 °F 45 °F 32 °F (1991)
Degree Days  
Heating Degree Days 8    
Growing Degree Days 8 (Base 50)    
Moisture  
Dew Point 56 °F    
Average Humidity 82    
Maximum Humidity 94    
Minimum Humidity 52    
Precipitation  
Precipitation 0.03 in - - ()
Sea Level Pressure  
Sea Level Pressure 29.94 in    
Wind  
Wind Speed 3 mph (WSW)    
Max Wind Speed 12 mph    
Max Gust Speed -    
Visibility 9 miles    
Events Rain    
Averages and records for this station are not official NWS values.
T = Trace of Precipitation, MM = Missing Value Source: NWS Daily Summary

Daily Weather History Graph

Daily Weather History Graph

Search for Another Location

Airport or City:

Trip Planner

Search our weather history database for the weather conditions in past years. The results will help you decide how hot, cold, wet, or windy it might be!

Date:

Astronomy

Oct. 16, 2013 Rise Set
Actual Time 7:49 AM EDT 6:57 PM EDT
Civil Twilight 7:22 AM EDT 7:24 PM EDT
Nautical Twilight 6:50 AM EDT 7:55 PM EDT
Astronomical Twilight 6:19 AM EDT 8:26 PM EDT
Moon 5:35 PM EDT (10/16) 5:16 AM EDT (10/16)
Length of Visible Light 12h 02m
Length of Day
11h 08m
Waxing Gibbous, 94% of the Moon is Illuminated
Oct 16
Waxing Gibbous
Oct 18
Full
Oct 26
Last Quarter
Nov 3
New
Nov 10
First Quarter

Hourly Weather History & Observations

Time (EDT) Temp. Dew Point Humidity Pressure Visibility Wind Dir Wind Speed Gust Speed Precip Events Conditions
12:53 AM 64.9 °F 62.1 °F 90% 29.96 in 10.0 mi Calm Calm - N/A   Overcast
1:53 AM 66.0 °F 61.0 °F 84% 29.95 in 10.0 mi South 3.5 mph - N/A   Overcast
2:53 AM 64.9 °F 61.0 °F 87% 29.93 in 10.0 mi Calm Calm - N/A   Partly Cloudy
3:53 AM 64.9 °F 61.0 °F 87% 29.91 in 10.0 mi Calm Calm - N/A   Overcast
4:53 AM 64.9 °F 61.0 °F 87% 29.90 in 10.0 mi SSW 3.5 mph - N/A   Overcast
5:18 AM 64.4 °F 60.8 °F 88% 29.91 in 7.0 mi Calm Calm - 0.00 in Rain Light Rain
5:53 AM 64.0 °F 62.1 °F 93% 29.91 in 10.0 mi SSW 3.5 mph - 0.01 in Rain Light Rain
6:45 AM 64.4 °F 62.6 °F 94% 29.92 in 7.0 mi Variable 5.8 mph - 0.00 in Rain Light Rain
6:53 AM 64.0 °F 62.1 °F 93% 29.91 in 4.0 mi SW 4.6 mph - 0.00 in Rain Light Rain
7:35 AM 64.4 °F 62.6 °F 94% 29.92 in 6.0 mi Calm Calm - 0.01 in   Overcast
7:53 AM 64.0 °F 62.1 °F 93% 29.92 in 9.0 mi Variable 3.5 mph - 0.01 in   Overcast
8:53 AM 64.9 °F 62.1 °F 90% 29.92 in 7.0 mi SW 4.6 mph - N/A   Overcast
9:53 AM 64.9 °F 63.0 °F 93% 29.93 in 6.0 mi Calm Calm - N/A   Overcast
10:53 AM 61.0 °F 57.9 °F 90% 29.95 in 9.0 mi WNW 6.9 mph - 0.00 in   Overcast
11:12 AM 60.8 °F 57.2 °F 88% 29.96 in 9.0 mi West 3.5 mph - N/A   Overcast
11:53 AM 61.0 °F 55.9 °F 83% 29.96 in 10.0 mi Variable 3.5 mph - N/A   Overcast
12:35 PM 60.8 °F 57.2 °F 88% 29.96 in 9.0 mi WSW 4.6 mph - 0.01 in   Overcast
12:53 PM 62.1 °F 57.0 °F 84% 29.94 in 10.0 mi West 5.8 mph - 0.01 in   Mostly Cloudy
1:00 PM 62.6 °F 57.2 °F 82% 29.95 in 10.0 mi WSW 5.8 mph - N/A   Mostly Cloudy
1:16 PM 64.4 °F 57.2 °F 77% 29.94 in 10.0 mi West 4.6 mph - N/A   Mostly Cloudy
1:53 PM 68.0 °F 55.9 °F 65% 29.92 in 10.0 mi West 4.6 mph - N/A   Clear
2:53 PM 69.1 °F 57.0 °F 65% 29.91 in 10.0 mi SW 6.9 mph - N/A   Mostly Cloudy
3:53 PM 68.0 °F 51.1 °F 55% 29.91 in 10.0 mi WNW 11.5 mph - N/A   Clear
4:53 PM 66.0 °F 48.9 °F 54% 29.91 in 10.0 mi West 6.9 mph - N/A   Overcast
5:53 PM 64.9 °F 46.9 °F 52% 29.93 in 10.0 mi West 6.9 mph - N/A   Overcast
6:53 PM 61.0 °F 48.0 °F 62% 29.93 in 10.0 mi West 3.5 mph - N/A   Mostly Cloudy
7:53 PM 55.9 °F 48.0 °F 75% 29.95 in 10.0 mi West 3.5 mph - N/A   Mostly Cloudy
8:53 PM 52.0 °F 46.0 °F 80% 29.96 in 10.0 mi Calm Calm - N/A   Clear
9:53 PM 48.0 °F 45.0 °F 89% 29.98 in 10.0 mi Calm Calm - N/A   Clear
10:53 PM 46.0 °F 43.0 °F 89% 29.99 in 10.0 mi Calm Calm - N/A   Clear
11:53 PM 45.0 °F 43.0 °F 93% 29.99 in 10.0 mi Calm Calm - N/A   Clear